Orlando International, FL

10:52 AM EDT on July 23, 2017 (GMT -0400)
Orlando International

Weather History for KMCO - January, 2013

Change the Weather History Date:

Thursday, January 10, 2013

  Actual Average Record
Temperature  
Mean Temperature 73 °F 60 °F  
Max Temperature 82 °F 71 °F 86 °F (1972)
Min Temperature 64 °F 49 °F 26 °F (1970)
Degree Days  
Heating Degree Days 0 7  
Month to date heating degree days 64  
Since 1 July heating degree days 255  
Cooling Degree Days 8 1  
Month to date cooling degree days 13  
Year to date cooling degree days 13  
Growing Degree Days 23 (Base 50)    
Moisture  
Dew Point 65 °F    
Average Humidity 87    
Maximum Humidity 100    
Minimum Humidity 41    
Precipitation  
Precipitation 0.00 in 0.08 in 4.17 in (1986)
Month to date precipitation 0.77  
Year to date precipitation 0.77  
Sea Level Pressure  
Sea Level Pressure 30.30 in    
Wind  
Wind Speed 5 mph (East)    
Max Wind Speed 15 mph    
Max Gust Speed 21 mph    
Visibility 6 miles    
Events Fog    
T = Trace of Precipitation, MM = Missing Value Source: NWS Daily Summary

Daily Weather History Graph

Daily Weather History Graph

Search for Another Location

Airport or City:

Trip Planner

Search our weather history database for the weather conditions in past years. The results will help you decide how hot, cold, wet, or windy it might be!

Date:

Astronomy

Jan. 10, 2013 Rise Set
Actual Time 7:18 AM EST 5:47 PM EST
Civil Twilight 6:53 AM EST 6:12 PM EST
Nautical Twilight 6:24 AM EST 6:41 PM EST
Astronomical Twilight 5:55 AM EST 7:10 PM EST
Moon 5:57 AM EST (1/10) 4:52 PM EST (1/10)
Length of Visible Light 11h 19m
Length of Day
10h 28m
Waning Crescent, 2% of the Moon is Illuminated
Jan 10
Waning Crescent
Jan 11
New
Jan 18
First Quarter
Jan 26
Full
Feb 3
Last Quarter

Hourly Weather History & Observations

Time (EST) Temp. Heat Index Dew Point Humidity Pressure Visibility Wind Dir Wind Speed Gust Speed Precip Events Conditions
12:53 AM 66.9 °F - 66.9 °F 100% 30.32 in 3.0 mi Calm Calm - N/A Fog Patches of Fog
1:13 AM 66.2 °F - 66.2 °F 100% 30.32 in 3.0 mi NE 3.5 mph - N/A Fog Patches of Fog
1:53 AM 66.9 °F - 66.9 °F 100% 30.32 in 3.0 mi ENE 3.5 mph - N/A Fog Patches of Fog
2:53 AM 66.9 °F - 66.9 °F 100% 30.32 in 3.0 mi ENE 4.6 mph - N/A Fog Patches of Fog
3:08 AM 66.2 °F - 66.2 °F 100% 30.32 in 3.0 mi East 4.6 mph - N/A Fog Patches of Fog
3:27 AM 66.2 °F - 66.2 °F 100% 30.32 in 1.0 mi East 4.6 mph - N/A Fog Patches of Fog
3:33 AM 66.2 °F - 66.2 °F 100% 30.31 in 0.5 mi ENE 4.6 mph - N/A Fog Fog
3:53 AM 66.0 °F - 66.0 °F 100% 30.30 in 1.0 mi East 5.8 mph - N/A Fog Patches of Fog
4:19 AM 66.2 °F - 66.2 °F 100% 30.30 in 2.0 mi ENE 4.6 mph - N/A Fog Patches of Fog
4:53 AM 66.0 °F - 66.0 °F 100% 30.29 in 2.0 mi East 4.6 mph - N/A Fog Patches of Fog
5:12 AM 66.2 °F - 66.2 °F 100% 30.30 in 1.0 mi ENE 4.6 mph - N/A Fog Patches of Fog
5:45 AM 66.2 °F - 66.2 °F 100% 30.30 in 0.5 mi East 3.5 mph - N/A Fog Fog
5:53 AM 66.9 °F - 66.0 °F 97% 30.30 in 0.5 mi Calm Calm - N/A Fog Fog
6:10 AM 66.2 °F - 66.2 °F 100% 30.30 in 2.0 mi ESE 4.6 mph - N/A Fog Mostly Cloudy
6:27 AM 68.0 °F - 66.2 °F 94% 30.30 in 6.0 mi ESE 5.8 mph - N/A   Scattered Clouds
6:53 AM 66.0 °F - 66.0 °F 100% 30.31 in 7.0 mi ESE 4.6 mph - N/A Fog Patches of Fog
7:53 AM 66.9 °F - 66.9 °F 100% 30.33 in 6.0 mi Calm Calm - N/A Fog Scattered Clouds
8:04 AM 66.2 °F - 66.2 °F 100% 30.33 in 8.0 mi East 4.6 mph - N/A Fog Patches of Fog
8:53 AM 69.1 °F - 69.1 °F 100% 30.33 in 9.0 mi East 6.9 mph - N/A   Scattered Clouds
9:53 AM 73.9 °F - 69.1 °F 85% 30.33 in 10.0 mi ESE 9.2 mph - N/A   Scattered Clouds
10:53 AM 77.0 °F - 64.9 °F 66% 30.30 in 10.0 mi ESE 13.8 mph - N/A   Scattered Clouds
11:53 AM 80.1 °F 81.2 °F 62.1 °F 54% 30.27 in 10.0 mi ESE 13.8 mph - N/A   Scattered Clouds
12:53 PM 82.0 °F 83.0 °F 62.1 °F 51% 30.24 in 10.0 mi East 15.0 mph - N/A   Scattered Clouds
1:53 PM 82.0 °F 83.1 °F 63.0 °F 52% 30.24 in 10.0 mi East 12.7 mph 20.7 mph N/A   Mostly Cloudy
2:53 PM 79.0 °F - 63.0 °F 58% 30.25 in 10.0 mi East 12.7 mph - N/A   Mostly Cloudy
3:53 PM 79.0 °F - 64.9 °F 62% 30.27 in 10.0 mi East 12.7 mph - N/A   Mostly Cloudy
4:53 PM 77.0 °F - 66.0 °F 69% 30.27 in 10.0 mi East 13.8 mph - N/A   Mostly Cloudy
5:53 PM 73.9 °F - 64.9 °F 73% 30.28 in 10.0 mi East 10.4 mph - N/A   Mostly Cloudy
6:53 PM 71.1 °F - 64.0 °F 78% 30.28 in 10.0 mi ESE 6.9 mph - N/A   Scattered Clouds
7:53 PM 68.0 °F - 64.0 °F 87% 30.29 in 10.0 mi East 5.8 mph - N/A   Partly Cloudy
8:53 PM 68.0 °F - 64.0 °F 87% 30.29 in 10.0 mi East 3.5 mph - N/A   Partly Cloudy
9:53 PM 66.9 °F - 63.0 °F 87% 30.30 in 10.0 mi ESE 3.5 mph - N/A   Partly Cloudy
10:53 PM 64.9 °F - 63.0 °F 93% 30.30 in 10.0 mi East 4.6 mph - N/A   Clear
11:53 PM 64.9 °F - 63.0 °F 93% 30.29 in 10.0 mi East 5.8 mph - N/A   Partly Cloudy